Terug naar catalogus

ATHENA-FIDUS

ActiefMilitairGEO
NORAD 39509·PAYLOAD·🇫🇷 France🇮🇹 Italy

Gelanceerd Feb 6, 2014 vanaf Guiana Space Centre

Loading…

TLE

VersSource: Space-Track

Epoch: Sep 14, 2026, 13:59 UTC

1 39509U 14006B   26257.58264104  .00000146  00000-0  00000-0 0  9990
2 39509   0.0262 117.3907 0001533  66.7221  56.9968  1.00273171 45983

Volg ATHENA-FIDUS in realtime met AllMySat

Download on the App Store